Home > Weather > Penza > Past weeks

Flag for Russia Weather for the Past 2 Weeks in Penza, Russia

Now
23 °F

Light snow. Ice fog.


Feels Like: 12 °F
Forecast: 21 / 29 °F
Wind: 10 mph from East

Location: Saratov / Tsentralny

Current Time: Feb 14, 2016 at 1:11:01 AM

Latest Report: Feb 14, 2016 at 12:00 AM


Visibility: 1 mi

Pressure: 30.21 "Hg

Humidity: 100%

Dew point: 23 °F

Location of PenzaLocation

Historic Weather in Penza — Graph

°F

Penza Temperature Yesterday

Maximum temperature yesterday: 25 °F (at 12:00 AM)
Minimum temperature yesterday: 18 °F (at 9:00 AM)
Average temperature yesterday: 20 °F

High & Low Weather Summary for the Past Weeks

 TemperatureHumidityPressure
High50 °F (Feb 5, 11:30 AM)100% (Jan 31, 8:00 PM)30.51 "Hg (Jan 31, 8:00 PM)
Low18 °F (Feb 13, 9:00 AM)50% (Feb 5, 11:30 AM)29.56 "Hg (Feb 3, 8:00 PM)
Average29 °F84%30.10 "Hg
* Reported Jan 29 11:00 PM — Feb 13 11:00 PM, Penza, Weather by CustomWeather, © 2016

Note: Actual official high and low records may vary slightly from our data, if they occured in-between our weather recording intervals... More about our weather records

Advertising

Penza Weather History for the Previous 24 Hours

 ConditionsComfort  
Time TempWeatherWind HumidityBarometerVisibility
11:00 PM
Sat, Feb 13
21 °FSnow. Ice fog.13 mph100%30.24 "Hg1 mi
10:00 PM21 °FSnow. Ice fog.13 mph93%30.24 "Hg1 mi
9:30 PM21 °FSnow. Ice fog.13 mph93%30.24 "Hg1 mi
9:00 PM21 °FSnow. Ice fog.10 mph93%30.24 "Hg1 mi
8:30 PM21 °FSnow. Ice fog.10 mph100%30.27 "Hg1 mi
8:00 PM21 °FSnow. Ice fog.8 mph100%30.27 "Hg1 mi
7:30 PM21 °FLight snow. Ice fog.10 mph100%30.27 "Hg2 mi
7:00 PM21 °FLight snow. Ice fog.8 mph100%30.27 "Hg4 mi
6:30 PM21 °FLight snow. Ice fog.8 mph100%30.27 "Hg4 mi
6:00 PM21 °FLight snow. Ice fog.8 mph100%30.27 "Hg2 mi
5:30 PM21 °FLight snow. Ice fog.8 mph93%30.27 "Hg3 mi
5:00 PM21 °FLight snow. Ice fog.10 mph93%30.27 "Hg2 mi
4:30 PM21 °FLight snow. Ice fog.10 mph93%30.27 "Hg2 mi
4:00 PM21 °FLight snow. Ice fog.10 mph93%30.27 "Hg3 mi
3:30 PM19 °FLight snow. Ice fog.10 mph100%30.30 "Hg3 mi
3:00 PM19 °FLight snow. Low clouds.10 mph100%30.30 "Hg4 mi
2:30 PM19 °FLight snow. Ice fog.10 mph100%30.33 "Hg3 mi
2:00 PM19 °FLight snow. Ice fog.10 mph100%30.33 "Hg3 mi
1:30 PM19 °FLight snow. Ice fog.10 mph93%30.33 "Hg2 mi
1:00 PM19 °FLight snow. Ice fog.10 mph93%30.33 "Hg2 mi
12:30 PM19 °FIce fog.10 mph93%30.36 "Hg2 mi
12:00 PM19 °FIce fog.6 mph93%30.36 "Hg2 mi
11:30 AM19 °FIce fog.6 mph93%30.36 "Hg2 mi
11:00 AM19 °FIce fog.6 mph93%30.36 "Hg2 mi
10:30 AM19 °FIce fog.10 mph93%30.36 "Hg2 mi
10:00 AM19 °FIce fog.10 mph93%30.36 "Hg2 mi
9:30 AM18 °FIce fog.6 mph100%30.39 "Hg1 mi
9:00 AM18 °FIce fog.6 mph100%30.39 "Hg1 mi
8:30 AM19 °FIce fog.6 mph100%30.39 "Hg1 mi
8:00 AM19 °FIce fog.6 mph100%30.39 "Hg0 mi
7:30 AM19 °FIce fog.3 mph93%30.39 "Hg0 mi
7:00 AM19 °FIce fog.6 mph93%30.39 "Hg1 mi
6:30 AM19 °FIce fog.6 mph93%30.39 "Hg2 mi
6:00 AM19 °FClear.6 mph93%30.39 "Hg10 mi
5:30 AM19 °FClear.6 mph93%30.42 "Hg10 mi
5:00 AM19 °FClear.1 mph93%30.42 "Hg10 mi
4:30 AM21 °FClear.3 mph93%30.39 "Hg10 mi
4:00 AM21 °FClear.3 mph93%30.39 "Hg10 mi
3:00 AM19 °FClear.6 mph100%30.39 "Hg10 mi
2:00 AM23 °FPassing clouds.3 mph93%30.42 "HgN/A
1:00 AM23 °FPassing clouds.1 mph93%30.42 "HgN/A
Weather by CustomWeather, © 2016

See weather overviewHow to use our weather pages